Hourly Data Report for April 10, 2010

YELLOWKNIFE A
NORTHWEST TERRITORIES

62°27'46.000" N
114°26'25.000" W
205.70 m
2204100
71936
YZF

Download Data

Hourly Data (April 2010)
Hourly Data Report for April 10, 2010
TIME
LST
Temp Definition
°C
Dew Point Definition
°C
Rel Hum Definition
%
Precip. Amount Definition
mm

Wind Dir Definition
10's deg

Wind Spd Definition
km/h
Visibility Definition
km
Stn Press Definition
kPa
Hmdx Definition


Wind Chill Definition


Weather Definition


00:00 -9.9 -18.4 50   2 33 24.1 99.44   -20 Mostly Cloudy
01:00 -10.3 -18.5 51   2 33 24.1 99.50   -20 Mostly Cloudy
02:00 -10.9 -19.2 50   2 37 24.1 99.58   -22 Mainly Clear
03:00 -11.7 -19.8 51   2 33 24.1 99.65   -22 Mainly Clear
04:00 -12.4 -20.5 51   3 33 24.1 99.74   -23 Mainly Clear
05:00 -12.7 -20.6 52   3 28 24.1 99.83   -23 Mainly Clear
06:00 -12.7 -20.4 53   2 28 16.1 99.91   -23 Snow
07:00 -12.4 -19.9 54   3 28 6.4 99.96   -22 Snow
08:00 -11.9 -19.5 53   3 28 6.4 100.03   -22 Snow
09:00 -11.2 -19.0 53   3 26 24.1 100.11   -20 Mostly Cloudy
10:00 -10.4 -18.8 50   3 28 24.1 100.17   -20 Mostly Cloudy
11:00 -9.7 -18.2 50   3 22 24.1 100.20   -18 Cloudy
12:00 -9.4 -18.2 49   4 26 24.1 100.23   -18 Mostly Cloudy
13:00 -8.5 -16.9 51   4 22 24.1 100.28   -16 Cloudy
14:00 -8.3 -16.7 51   3 19 24.1 100.32   -16 Cloudy
15:00 -7.9 -16.7 49   4 28 24.1 100.35   -17 Cloudy
16:00 -7.8 -16.2 51   4 24 24.1 100.38   -16 Cloudy
17:00 -7.6 -16.2 50   5 22 24.1 100.42   -15 Cloudy
18:00 -8.0 -16.0 53   4 19 24.1 100.46   -15 Cloudy
19:00 -8.3 -16.1 53   5 19 24.1 100.49   -16 Cloudy
20:00 -8.8 -16.5 54   3 19 24.1 100.52   -16 Cloudy
21:00 -9.1 -16.5 55   4 19 24.1 100.56   -17 Snow
22:00 -9.4 -16.6 56   5 15 24.1 100.58   -16 Snow
23:00 -9.3 -16.5 56   5 13 24.1 100.60   -15 Snow

Notes on Data Quality.

Legend

  • E = Estimated
  • M = Missing
  • NA = Not Available*
  • [empty] = Indicates an unobserved value
Date modified: